Find Dongpo 11

NORAD ID: 68206 Int'l Des: NNA 2026-052 Owner: HUANTZ Country: CN operational
LEORETROGRADE

当前视图

正在加载3D地球...

About Dongpo 11

Dongpo 11 (NORAD 68206) is a satellite launched Mar 16, 2026 by HUANTZ of CN. It operates in LEO, RETROGRADE orbit with a mass of 100.00 kg.

即将过境

Passes for default location (London). Set your location on the main map for personalized predictions.

高度历史

Loading altitude history...

两行轨道根数

1 68206U 26052J 26167.17113613 .00076549 24241-5 97567-3 0 9998
2 68206 97.3332 235.4430 0489392 71.8832 293.5037 14.82080546 13557
Epoch: Jun 16, 2026 • Age: 6 hours

当前状态

高度 600.7 km
速度 7.57 km/s
星下点 -17.06°S, 175.53°E
发射日期 Mar 16, 2026
运行时间 0.2 years
类型 other

技术详情

分类 Payload
质量 100.00 kg
干质量 100.00 kg
总质量 100.00 kg
长度 1.50 m
直径 1.00 m
跨度 1.50 m
形状 Box
制造商 WEINA
平台类型 Dongpo
阶段状态 In Orbit
所有者/国家 HUANTZ/CN

Most Searched